Wind_Speed
40 40 34 29 28 25 11 11 13 19 29 39 48 61 59 65 50 40 36 37 24 8 4 5 4 16 15 29 6 7 8 2 2 5 5 4 3 5 4 6 7 7 7 4 3 1 10 9 4 11 6 3 8 14
38 39 31 27 21 12 6 10 12 18 32 32 44 53 59 64 60 40 32 38 22 8 3 4 7 6 14 14 21 18 2 5 4 4 3 3 3 3 5 5 3 4 5 6 8 6 2 6 1 6 14 10 10 22
35 37 27 25 11 11 7 8 13 17 17 22 47 51 62 59 59 41 36 34 23 9 1 3 2 8 15 14 17 6 5 11 8 8 4 3 3 3 4 4 4 2 3 3 2 5 5 5 6 17 15 17 20 25
31 31 26 23 13 16 9 10 13 12 18 18 26 32 58 49 45 33 37 29 25 9 2 2 4 4 11 21 20 17 12 18 19 11 3 3 3 2 3 3 4 4 10 7 4 0 6 8 15 22 20 22 26 28
26 28 25 21 16 15 15 11 14 16 16 17 20 22 30 37 38 22 28 26 21 10 3 1 1 4 2 12 21 18 24 29 12 3 2 3 3 4 0 1 3 5 7 7 6 11 7 11 28 31 32 32 33 36
20 25 27 22 17 11 13 11 17 14 18 21 23 25 26 25 44 26 7 22 24 17 6 2 2 3 4 2 7 19 24 14 8 5 2 4 3 3 4 5 4 18 15 17 5 14 18 19 32 34 39 36 35 36
13 17 27 31 19 12 10 13 14 13 19 21 20 21 25 28 32 15 6 12 22 16 6 2 2 2 6 13 4 10 13 8 5 5 2 3 2 5 2 4 4 19 25 21 14 17 14 29 24 32 38 36 35 31
14 8 13 19 28 16 8 10 10 11 13 20 26 29 32 27 25 17 12 15 20 8 5 3 1 3 6 3 3 4 4 4 5 3 3 2 3 1 4 6 5 9 19 21 20 16 23 29 34 36 39 38 35 33
11 10 4 8 13 21 18 22 18 10 11 13 23 26 18 9 6 10 18 18 20 4 3 3 6 3 7 4 4 3 3 2 2 2 1 3 2 4 5 5 9 14 20 22 22 17 27 36 35 38 39 36 34 32
7 9 7 2 4 8 15 14 20 24 20 15 17 7 5 6 20 23 8 4 2 2 2 1 4 3 5 2 2 2 2 2 1 1 8 0 3 9 7 9 9 17 21 28 29 20 28 30 39 40 39 35 30 29
4 5 7 4 1 4 5 8 9 9 14 9 5 5 22 12 6 3 2 2 2 2 5 4 3 3 2 3 2 3 1 1 3 3 4 3 3 4 8 8 12 20 24 27 27 29 31 38 42 40 36 31 26 24
4 4 5 4 1 1 2 5 12 10 9 8 16 14 6 2 3 2 2 2 3 5 5 3 4 6 5 6 3 3 1 1 2 3 3 2 4 7 16 14 16 23 28 24 24 28 30 37 39 38 33 29 26 21
4 4 4 3 2 4 1 4 18 15 21 13 5 4 3 1 3 5 4 3 3 5 6 6 4 5 5 5 3 2 2 3 3 1 4 4 2 14 21 22 22 22 20 20 23 24 27 32 32 28 28 25 22 21
4 3 4 3 2 5 5 7 19 16 7 1 3 3 3 2 3 2 2 3 3 9 16 11 2 3 4 3 2 3 2 3 1 2 3 2 7 20 25 28 26 23 21 21 23 26 29 29 28 25 24 24 22 20
4 2 3 2 4 6 6 8 13 9 2 2 3 1 0 2 2 2 4 8 16 21 16 9 6 4 2 3 1 3 2 3 4 4 3 5 16 26 28 28 26 25 25 27 29 28 27 26 26 25 23 21 18 18
4 2 3 3 3 5 4 5 5 5 3 2 3 2 1 4 2 4 13 12 15 17 12 8 3 2 1 3 2 4 6 5 3 3 4 17 21 26 30 29 29 28 27 26 25 23 24 25 25 24 21 17 15 13
5 4 4 3 2 2 5 6 4 5 3 3 2 5 5 7 2 3 12 14 13 2 2 3 3 1 2 2 2 3 4 3 2 5 15 21 23 25 27 29 30 29 28 27 26 26 25 22 20 19 18 14 12 11
7 5 4 5 8 9 9 5 4 4 3 5 2 3 6 8 14 10 13 9 4 2 2 2 3 2 3 3 1 1 3 7 12 16 18 22 23 22 24 28 28 27 27 26 26 24 22 19 16 13 11 10 8 7
7 7 6 9 5 3 3 4 4 3 2 3 4 9 9 8 11 13 11 7 6 6 4 3 4 1 1 1 2 5 9 10 15 20 21 21 22 22 25 26 26 26 25 22 19 17 14 12 9 8 8 8 6 5
7 9 7 7 4 3 3 3 3 5 2 2 5 6 5 5 8 12 8 5 7 4 5 3 1 2 3 5 12 19 21 27 30 27 24 26 27 28 27 26 24 21 18 15 13 11 10 9 7 6 5 3 3 5
9 10 10 10 8 6 4 3 4 4 5 4 6 5 4 8 7 7 7 7 7 2 2 3 8 10 8 10 14 18 26 28 30 31 31 26 23 21 20 16 14 12 10 10 9 8 5 3 3 3 3 4 5 7
10 10 7 4 4 4 4 5 5 5 4 4 4 4 4 2 2 4 3 7 2 2 8 15 15 14 14 14 17 20 20 19 20 25 25 23 22 17 13 11 10 9 7 5 4 4 3 2 1 3 4 6 8 9
12 7 4 4 4 4 1 3 3 3 3 1 3 3 2 1 2 3 2 1 2 7 18 19 16 14 15 16 16 15 11 13 16 15 14 13 11 10 9 9 5 4 5 5 3 2 1 3 5 6 7 9 10 11
9 3 3 3 4 1 2 2 3 4 3 2 2 3 1 1 4 3 1 1 3 12 16 16 15 15 14 13 12 10 10 9 10 11 10 10 9 9 7 6 5 3 1 1 3 4 5 6 8 9 9 10 13 15
3 2 4 3 3 4 3 2 2 3 2 1 3 2 1 3 2 2 1 2 7 14 14 15 15 14 17 15 13 12 9 9 8 11 11 7 9 11 9 8 7 6 5 5 5 6 8 8 9 11 13 15 18 20
4 1 3 5 1 4 4 3 4 4 3 3 1 1 2 3 3 2 2 0 5 15 17 15 13 12 11 12 13 11 10 10 9 12 10 7 4 3 4 7 8 7 7 7 7 7 8 9 11 13 15 18 20 22
4 2 3 2 5 7 4 3 4 4 3 4 3 2 3 3 2 2 2 2 5 11 15 12 7 9 14 15 14 13 14 13 12 10 10 10 10 7 5 5 8 6 5 4 4 5 7 10 12 15 18 21 22 24
3 5 5 3 4 4 5 3 3 3 3 4 4 3 6 6 3 2 3 9 14 16 15 12 11 10 13 14 13 13 13 13 13 12 12 10 7 6 4 3 3 4 4 4 5 8 11 14 18 20 21 23 24 25
2 8 11 5 4 3 2 4 3 4 10 6 4 3 2 4 4 9 10 11 12 13 17 16 15 13 14 13 13 11 12 12 12 12 9 6 8 5 4 3 2 2 3 8 12 14 17 19 21 21 21 21 21 22
2 8 4 2 4 1 2 3 5 10 13 11 10 11 11 10 14 15 13 11 10 14 15 14 15 12 13 12 13 13 11 8 4 3 4 6 6 6 5 3 3 6 10 13 16 18 20 19 18 17 18 20 22 24
13 5 5 3 2 2 10 18 20 20 18 15 19 15 10 7 9 12 13 12 10 9 10 13 11 6 5 9 9 9 8 6 5 4 3 5 6 4 2 4 8 11 14 16 17 17 16 16 18 20 21 22 23 24
5 4 4 4 2 4 10 9 8 7 8 7 5 6 6 4 4 3 3 7 9 9 8 8 8 9 10 11 9 7 7 10 8 7 6 4 2 1 4 8 11 13 14 14 13 14 16 18 19 20 21 22 22 21
5 7 8 6 2 2 3 5 4 3 6 4 4 4 3 4 3 3 4 3 6 7 11 12 13 16 14 11 10 11 10 9 7 6 4 3 3 5 8 9 10 11 11 12 13 15 16 17 18 19 20 19 17 16
Wind_Direction
353 351 349 354 6 6 40 134 147 161 151 174 181 165 177 177 175 177 183 194 196 147 135 193 190 199 173 212 171 150 121 196 126 147 175 190 172 197 133 150 157 154 150 169 142 173 255 178 136 173 212 155 182 177
353 352 352 357 15 47 23 145 152 161 166 170 176 181 182 182 185 184 184 193 194 171 180 214 278 268 194 190 179 172 157 161 149 119 167 139 181 163 150 177 178 173 172 169 189 205 242 199 283 221 161 157 178 167
354 358 0 356 24 52 104 137 158 163 158 163 179 177 185 185 189 187 189 190 194 186 256 284 285 256 245 246 189 147 201 156 168 132 146 145 160 151 161 208 100 220 143 164 138 208 206 192 165 178 193 181 173 178
0 5 7 4 26 57 127 142 153 157 169 164 169 179 181 172 172 173 182 177 176 130 127 270 264 256 235 219 245 223 220 171 164 155 124 141 158 171 216 145 152 175 149 170 257 293 92 178 182 173 165 163 156 155
8 15 9 11 26 58 63 146 148 159 162 170 174 170 166 180 167 164 170 170 181 185 151 287 326 297 285 232 225 240 205 180 149 104 105 169 138 125 4 77 227 182 167 182 210 192 175 180 175 171 160 157 161 155
15 29 30 23 32 55 60 75 165 158 157 174 173 175 176 165 183 174 160 189 201 199 110 149 270 333 44 79 236 199 185 158 128 119 126 161 162 118 157 201 237 201 205 200 193 192 201 182 172 165 158 158 159 158
28 34 37 40 46 46 79 85 96 141 166 165 169 171 172 170 172 178 142 161 185 173 133 108 336 42 116 134 95 88 140 94 102 123 123 126 159 137 143 205 240 208 208 201 194 152 110 154 158 164 163 161 162 162
18 33 34 33 36 67 72 103 104 108 110 132 158 149 157 152 152 114 94 145 181 147 130 128 205 149 151 76 53 31 61 72 48 93 98 109 100 98 238 230 232 220 198 190 185 192 186 166 162 160 164 162 160 160
1 19 34 32 30 40 65 117 122 130 121 120 145 149 142 131 98 102 138 154 163 141 156 129 165 154 150 106 88 59 66 79 86 89 71 127 151 214 231 233 221 204 179 177 177 169 159 158 155 161 164 163 161 166
348 2 12 7 18 11 51 65 111 125 146 151 141 70 59 99 139 142 104 123 134 134 146 134 103 124 129 105 97 118 356 92 57 156 119 166 258 255 275 244 236 187 176 171 135 131 144 150 160 165 170 172 177 173
326 349 357 3 354 301 345 76 79 91 112 111 76 69 114 90 75 69 114 143 150 168 172 150 162 121 75 107 108 56 110 101 114 185 138 197 248 223 187 191 177 177 181 180 183 178 181 179 172 171 173 175 178 181
297 314 339 359 37 280 334 116 98 94 81 96 118 111 107 94 96 118 174 178 218 184 155 144 130 110 100 99 93 51 105 57 179 164 90 244 248 190 167 157 155 168 172 171 175 173 179 180 179 173 171 179 180 181
281 293 304 340 110 140 121 143 145 126 131 116 114 99 163 199 62 159 200 215 188 155 165 147 129 110 118 104 96 128 151 195 130 158 212 214 258 173 163 154 150 152 155 159 165 172 175 170 166 170 177 178 176 181
266 287 285 307 154 149 121 140 156 170 176 116 95 108 169 239 252 213 230 165 146 138 125 121 79 103 109 90 122 139 134 159 147 17 257 236 195 172 162 160 154 148 151 157 164 162 162 165 172 176 178 177 181 187
249 263 272 278 184 162 143 129 159 178 96 80 80 142 147 335 325 273 112 112 123 126 115 86 55 61 68 112 205 116 104 202 202 220 230 196 159 160 157 156 152 150 150 152 155 156 160 164 168 166 170 171 174 178
225 218 246 233 180 186 172 162 169 108 80 82 66 77 16 86 9 67 119 115 120 108 95 84 96 96 153 151 126 187 155 208 239 218 192 141 150 160 160 160 154 151 153 154 157 160 163 165 165 165 165 171 179 189
201 209 222 203 164 154 154 110 74 60 49 35 360 56 96 95 129 98 130 134 140 88 114 130 93 154 106 74 168 173 198 226 241 120 140 147 147 154 161 160 157 159 161 161 161 162 161 162 164 168 173 178 192 205
195 185 178 146 127 117 96 63 84 74 62 20 70 350 79 80 115 119 128 137 148 56 85 61 115 94 151 149 283 183 109 78 110 124 136 149 151 153 161 163 161 163 162 160 162 162 165 166 170 178 191 200 210 216
173 157 150 167 167 97 73 57 51 84 56 46 69 82 78 74 119 131 114 90 81 72 97 63 66 90 217 214 130 119 140 131 121 117 126 137 144 150 151 148 148 147 149 150 154 158 164 174 191 201 196 192 203 221
162 140 120 134 131 89 82 62 67 88 74 70 77 76 71 64 84 114 127 70 57 57 42 50 235 233 188 135 151 144 143 138 130 114 117 128 132 137 139 142 143 146 150 154 160 168 169 169 170 175 183 205 250 280
162 150 139 127 84 77 87 75 69 88 116 83 94 74 51 69 69 57 47 31 54 56 41 53 78 85 105 131 141 143 144 147 145 144 140 136 137 141 142 147 150 151 157 157 163 160 162 159 159 193 245 274 285 287
157 157 144 84 88 81 77 48 106 99 78 109 79 70 69 37 5 38 50 44 48 30 140 136 122 118 129 146 154 152 148 152 155 152 149 149 149 152 151 151 151 148 144 142 138 143 152 168 242 282 288 287 290 295
140 132 86 75 85 66 88 53 76 55 108 185 84 68 22 49 95 110 48 82 102 129 160 151 140 132 132 142 150 149 145 150 149 152 154 154 144 142 146 145 139 135 149 157 178 201 277 303 306 297 294 293 294 288
125 81 81 81 84 181 113 38 86 89 68 73 85 96 102 148 136 54 136 255 159 163 161 163 161 151 146 148 150 152 152 149 149 143 149 160 156 145 135 143 150 145 138 247 255 263 280 285 275 266 264 267 274 283
105 9 96 42 98 81 74 37 41 66 103 138 81 16 258 118 78 45 200 273 151 168 171 172 176 184 177 173 174 176 176 177 170 158 145 133 149 159 170 184 200 217 236 251 257 269 268 257 255 264 276 285 291 293
88 219 115 167 190 115 169 120 152 161 112 61 106 41 68 82 73 218 240 249 167 179 181 178 175 177 180 183 176 183 187 180 174 165 163 173 199 204 212 222 225 223 231 242 256 263 257 265 275 285 292 295 298 299
125 240 178 161 140 129 82 79 99 97 107 147 177 81 76 84 217 261 63 68 159 168 170 163 171 172 157 155 155 153 150 151 169 172 172 179 194 212 227 241 225 233 228 246 259 273 283 289 294 300 305 305 306 306
130 151 139 192 90 84 112 86 114 158 177 150 99 106 134 162 187 45 60 119 133 145 151 147 148 151 149 152 158 161 164 171 175 172 168 165 174 179 186 201 218 219 236 256 286 307 310 311 312 312 311 310 308 307
88 123 114 55 54 53 134 149 186 189 147 125 116 139 115 68 77 109 118 131 144 153 146 144 137 144 146 148 152 165 175 179 189 179 174 170 166 151 159 173 193 223 281 311 315 316 316 317 315 314 312 311 311 310
157 134 94 73 96 170 229 144 123 132 128 107 104 106 96 88 91 127 132 132 138 140 142 147 146 155 152 159 157 158 161 167 181 162 165 168 169 169 179 210 280 307 313 314 315 316 315 315 315 315 314 312 312 313
139 115 82 69 106 62 127 117 113 117 114 98 123 112 118 121 99 120 136 138 132 139 141 148 147 150 163 169 169 163 142 135 117 113 114 138 146 157 229 298 308 310 312 314 316 319 321 322 323 323 323 323 324 323
120 119 120 98 96 112 131 115 94 92 97 94 89 107 110 106 79 121 98 171 168 166 177 182 183 162 147 145 143 139 130 130 119 108 104 104 100 348 313 311 314 318 322 326 330 331 331 331 332 331 330 330 330 332
89 91 93 97 83 44 77 94 65 69 55 78 72 103 89 95 114 111 73 122 173 192 185 173 159 146 141 137 133 128 125 121 114 105 88 52 359 336 329 331 334 337 340 341 341 342 342 342 339 337 337 338 341 344
Height
1242 1230 1218 1209 1198 1189 1182 1181 1181 1182 1184 1189 1200 1208 1222 1236 1247 1257 1266 1274 1280 1285 1293 1294 1295 1293 1296 1304 1305 1312 1324 1328 1330 1334 1341 1345 1344 1347 1348 1349 1352 1359 1368 1371 1381 1378 1365 1349 1356 1360 1352 1349 1351 1352
1241 1230 1219 1210 1203 1196 1192 1190 1191 1191 1193 1201 1208 1217 1226 1237 1248 1257 1266 1273 1280 1285 1291 1289 1291 1290 1294 1297 1301 1307 1307 1313 1316 1328 1337 1339 1342 1344 1343 1346 1349 1353 1352 1359 1363 1357 1348 1348 1347 1346 1347 1349 1355 1356
1242 1230 1220 1212 1206 1200 1198 1197 1198 1200 1203 1206 1211 1220 1229 1240 1248 1256 1264 1271 1280 1286 1290 1289 1289 1289 1291 1293 1298 1302 1306 1302 1309 1310 1325 1331 1332 1336 1340 1343 1344 1347 1348 1354 1355 1345 1346 1347 1347 1348 1350 1351 1354 1356
1244 1233 1224 1216 1209 1205 1203 1203 1205 1206 1209 1214 1218 1223 1229 1237 1248 1254 1262 1270 1277 1284 1288 1288 1287 1289 1291 1292 1295 1296 1297 1300 1306 1309 1316 1324 1326 1328 1333 1330 1331 1337 1343 1348 1349 1346 1347 1347 1345 1347 1350 1353 1356 1361
1247 1237 1228 1221 1214 1209 1207 1208 1210 1213 1215 1219 1224 1229 1233 1240 1246 1254 1261 1268 1274 1280 1288 1287 1286 1285 1284 1285 1289 1292 1297 1297 1301 1309 1316 1320 1323 1328 1334 1332 1331 1327 1331 1334 1333 1330 1332 1336 1341 1345 1349 1354 1356 1360
1250 1241 1234 1226 1220 1216 1214 1212 1213 1216 1220 1223 1227 1233 1238 1242 1247 1255 1260 1268 1272 1276 1283 1290 1289 1287 1284 1284 1287 1290 1293 1292 1296 1303 1312 1316 1316 1320 1327 1330 1317 1315 1317 1319 1321 1324 1329 1333 1338 1343 1347 1354 1359 1363
1252 1246 1240 1234 1226 1222 1220 1219 1218 1220 1223 1226 1230 1234 1239 1245 1251 1257 1262 1265 1270 1276 1281 1288 1287 1286 1285 1287 1292 1291 1291 1292 1299 1306 1309 1312 1317 1316 1322 1322 1311 1309 1312 1317 1321 1322 1332 1337 1342 1347 1350 1358 1364 1370
1254 1250 1245 1241 1236 1229 1226 1226 1227 1227 1225 1226 1230 1235 1241 1246 1252 1260 1264 1264 1270 1276 1281 1287 1291 1290 1289 1290 1293 1294 1296 1297 1300 1304 1309 1311 1317 1319 1317 1307 1305 1307 1311 1317 1320 1320 1322 1331 1340 1347 1353 1358 1366 1372
1254 1251 1249 1246 1243 1240 1235 1231 1231 1233 1235 1236 1235 1241 1246 1251 1257 1261 1264 1269 1272 1278 1277 1281 1283 1286 1289 1293 1296 1300 1299 1303 1307 1306 1308 1313 1316 1312 1302 1300 1301 1306 1308 1312 1317 1321 1326 1333 1341 1347 1353 1361 1366 1374
1254 1252 1250 1248 1247 1245 1244 1241 1238 1237 1239 1242 1245 1248 1254 1257 1260 1266 1271 1274 1274 1276 1277 1277 1277 1282 1286 1289 1296 1301 1303 1302 1308 1306 1310 1315 1311 1302 1300 1299 1301 1302 1307 1309 1314 1324 1330 1336 1339 1345 1352 1358 1364 1372
1254 1252 1251 1249 1247 1246 1246 1247 1246 1243 1242 1245 1250 1256 1260 1262 1265 1269 1272 1274 1275 1276 1276 1277 1279 1282 1288 1291 1294 1296 1302 1305 1314 1310 1312 1314 1307 1299 1297 1301 1300 1302 1306 1311 1314 1317 1323 1329 1338 1344 1352 1359 1366 1373
1253 1252 1251 1250 1248 1247 1247 1248 1249 1249 1247 1249 1252 1259 1263 1266 1268 1271 1272 1272 1271 1271 1274 1276 1279 1282 1287 1291 1297 1303 1305 1309 1306 1306 1310 1307 1300 1292 1295 1298 1300 1302 1309 1313 1316 1321 1327 1332 1337 1343 1352 1360 1367 1374
1252 1251 1251 1250 1249 1248 1247 1248 1251 1251 1251 1253 1257 1260 1263 1267 1274 1273 1274 1266 1266 1267 1269 1272 1278 1282 1288 1292 1298 1303 1306 1306 1303 1309 1301 1294 1290 1291 1294 1297 1305 1308 1311 1316 1320 1324 1329 1335 1341 1348 1355 1363 1368 1374
1250 1250 1250 1250 1249 1249 1248 1248 1250 1252 1254 1254 1255 1263 1262 1265 1260 1258 1258 1260 1260 1262 1267 1272 1276 1280 1285 1291 1296 1300 1302 1302 1305 1302 1295 1290 1287 1291 1294 1301 1307 1309 1314 1318 1322 1326 1332 1338 1345 1352 1359 1364 1368 1371
1249 1249 1249 1249 1249 1249 1249 1250 1251 1253 1253 1255 1256 1265 1263 1260 1259 1258 1258 1259 1262 1265 1269 1274 1279 1283 1288 1291 1293 1296 1303 1305 1303 1301 1292 1286 1287 1291 1297 1303 1307 1312 1317 1321 1326 1330 1336 1341 1348 1354 1360 1364 1367 1370
1248 1248 1248 1248 1248 1248 1249 1250 1251 1252 1254 1256 1257 1260 1260 1260 1262 1260 1261 1263 1267 1269 1271 1275 1282 1288 1288 1288 1290 1294 1295 1303 1295 1289 1284 1285 1290 1295 1300 1304 1309 1315 1320 1325 1330 1335 1340 1345 1350 1354 1359 1363 1366 1369
1247 1246 1247 1247 1247 1248 1248 1249 1251 1254 1256 1257 1260 1259 1260 1262 1264 1264 1265 1267 1270 1271 1274 1276 1286 1282 1287 1290 1288 1289 1293 1288 1284 1285 1286 1290 1294 1298 1302 1307 1312 1318 1323 1328 1333 1338 1342 1347 1351 1355 1359 1362 1365 1367
1246 1246 1247 1247 1248 1249 1249 1251 1254 1258 1261 1261 1261 1261 1262 1262 1265 1268 1270 1271 1272 1271 1272 1274 1276 1278 1289 1279 1287 1286 1287 1287 1288 1288 1290 1294 1298 1302 1306 1310 1316 1322 1327 1332 1336 1340 1344 1348 1352 1356 1359 1361 1363 1365
1245 1246 1247 1248 1249 1250 1252 1255 1257 1261 1264 1264 1264 1263 1264 1266 1268 1271 1272 1272 1272 1272 1273 1277 1282 1284 1285 1283 1284 1286 1288 1288 1291 1294 1297 1301 1303 1307 1312 1317 1322 1327 1332 1336 1340 1344 1347 1351 1353 1356 1358 1360 1362 1363
1245 1246 1247 1248 1250 1251 1255 1258 1259 1261 1265 1268 1267 1268 1270 1270 1271 1272 1274 1274 1274 1275 1280 1284 1284 1282 1281 1282 1283 1285 1288 1291 1294 1300 1305 1309 1312 1315 1319 1323 1328 1332 1336 1339 1342 1345 1347 1350 1353 1354 1356 1357 1358 1359
1245 1246 1248 1249 1250 1253 1258 1260 1261 1264 1267 1269 1271 1271 1274 1274 1275 1276 1277 1277 1278 1282 1285 1284 1283 1283 1284 1286 1289 1291 1293 1296 1299 1302 1307 1314 1319 1322 1326 1329 1332 1335 1337 1340 1343 1345 1347 1348 1350 1352 1353 1354 1355 1355
1244 1246 1248 1249 1252 1256 1260 1262 1263 1265 1269 1271 1273 1275 1278 1281 1280 1281 1282 1282 1285 1286 1287 1288 1290 1291 1292 1294 1296 1299 1302 1305 1307 1310 1314 1318 1321 1325 1328 1331 1334 1336 1338 1340 1342 1344 1346 1347 1349 1350 1350 1351 1351 1351
1245 1247 1248 1250 1254 1258 1265 1263 1264 1267 1272 1274 1275 1279 1282 1283 1283 1284 1286 1286 1287 1288 1290 1292 1295 1297 1298 1300 1303 1306 1308 1311 1314 1317 1320 1323 1325 1328 1330 1332 1334 1336 1337 1339 1341 1343 1344 1345 1346 1346 1347 1347 1347 1348
1245 1247 1250 1252 1257 1265 1264 1265 1266 1269 1272 1275 1278 1283 1283 1284 1285 1287 1290 1287 1288 1290 1292 1294 1297 1299 1302 1305 1307 1309 1312 1314 1316 1319 1321 1323 1325 1328 1330 1332 1334 1336 1337 1338 1340 1341 1342 1343 1343 1344 1344 1344 1344 1343
1247 1253 1253 1258 1258 1263 1269 1270 1270 1272 1279 1279 1283 1285 1284 1283 1291 1294 1292 1288 1288 1290 1293 1295 1298 1300 1302 1304 1307 1309 1312 1314 1316 1319 1322 1324 1326 1328 1330 1331 1333 1334 1336 1337 1339 1339 1340 1340 1341 1341 1341 1341 1340 1338
1251 1251 1254 1256 1260 1261 1265 1273 1275 1277 1278 1283 1284 1282 1282 1289 1297 1296 1289 1287 1288 1290 1293 1296 1298 1300 1303 1305 1307 1310 1312 1315 1318 1320 1323 1325 1327 1328 1330 1331 1333 1334 1335 1336 1337 1338 1338 1339 1339 1339 1338 1337 1335 1332
1251 1253 1250 1251 1252 1254 1261 1264 1266 1270 1280 1284 1283 1287 1291 1303 1301 1291 1288 1288 1289 1291 1294 1298 1300 1302 1303 1306 1309 1311 1314 1317 1319 1322 1323 1325 1328 1329 1331 1332 1332 1334 1334 1335 1336 1337 1337 1337 1336 1335 1333 1331 1329 1326
1245 1246 1251 1251 1252 1254 1261 1266 1270 1274 1273 1272 1277 1290 1294 1294 1293 1290 1290 1290 1291 1294 1297 1300 1302 1305 1307 1309 1311 1314 1316 1318 1320 1321 1323 1326 1327 1329 1330 1331 1332 1333 1333 1334 1334 1334 1334 1333 1331 1329 1327 1325 1322 1319
1244 1246 1249 1255 1255 1257 1261 1264 1265 1264 1266 1269 1278 1287 1286 1289 1290 1291 1293 1294 1296 1297 1299 1302 1304 1307 1308 1311 1313 1316 1318 1319 1320 1321 1323 1325 1327 1329 1330 1331 1332 1333 1333 1333 1332 1331 1330 1328 1326 1324 1321 1319 1316 1313
1246 1247 1252 1258 1260 1262 1260 1260 1261 1264 1266 1269 1273 1282 1287 1291 1293 1295 1297 1299 1300 1301 1303 1305 1306 1309 1310 1312 1314 1317 1319 1321 1322 1323 1324 1325 1327 1329 1330 1331 1332 1332 1331 1330 1329 1328 1326 1323 1321 1319 1317 1314 1310 1307
1244 1246 1252 1255 1259 1259 1261 1262 1264 1266 1268 1272 1276 1281 1287 1292 1295 1298 1299 1301 1303 1304 1305 1307 1309 1311 1313 1314 1316 1317 1319 1322 1323 1324 1325 1326 1328 1329 1330 1331 1331 1330 1329 1328 1326 1324 1322 1319 1317 1314 1311 1307 1304 1300
1244 1246 1252 1260 1262 1263 1264 1266 1268 1271 1274 1277 1283 1286 1290 1293 1297 1300 1301 1302 1303 1305 1307 1308 1310 1312 1314 1316 1318 1319 1321 1322 1324 1325 1327 1328 1329 1329 1330 1330 1329 1328 1326 1324 1323 1320 1318 1315 1312 1309 1306 1303 1300 1296
1246 1248 1251 1258 1263 1265 1265 1267 1271 1275 1278 1282 1285 1288 1290 1293 1298 1301 1301 1301 1303 1305 1306 1308 1310 1313 1316 1318 1320 1321 1323 1325 1326 1327 1328 1328 1329 1329 1328 1327 1326 1325 1323 1322 1320 1318 1315 1313 1310 1307 1303 1300 1297 1295